When you browse on this site, cookies collect data to enhance your experience and personalize the content and advertising you see.
Visit our Privacy Policy to learn more. By continuing to use the site, you agree to this use of cookies and data.
  • în România
  • Lista ţărilor
  • Pe 7 zile
  • Temperatura apei
  • Hartă satelitară
  • Meteo pe hartă
  • Widget-uri
  • user-avatar
    Intrare

    Meteo pe oră la Ondjiwa

    Astăzi, 27 Iunie, Joi

    Timp Temperatura Precipitaţii Vânt Presiune Umiditate
    00:00 +15°C° 0 mm 2 m/s 668 mmHg 34%
    01:00 +14°C° 0 mm 1 m/s 668 mmHg 39%
    02:00 +13°C° 0 mm 1 m/s 667 mmHg 43%
    03:00 +12°C° 0 mm 1 m/s 667 mmHg 46%
    04:00 +12°C° 0 mm 1 m/s 667 mmHg 50%
    05:00 +11°C° 0 mm 1 m/s 667 mmHg 51%
    06:00 +11°C° 0 mm 1 m/s 668 mmHg 53%
    07:00 +12°C° 0 mm 1 m/s 668 mmHg 51%
    08:00 +16°C° 0 mm 1 m/s 669 mmHg 42%
    09:00 +20°C° 0 mm 2 m/s 670 mmHg 34%
    10:00 +24°C° 0 mm 2 m/s 671 mmHg 25%
    11:00 +26°C° 0 mm 3 m/s 670 mmHg 22%
    12:00 +29°C° 0 mm 3 m/s 670 mmHg 19%
    13:00 +31°C° 0 mm 3 m/s 669 mmHg 16%
    14:00 +31°C° 0 mm 3 m/s 669 mmHg 15%
    15:00 +31°C° 0 mm 2 m/s 669 mmHg 15%
    16:00 +31°C° 0 mm 1 m/s 668 mmHg 14%
    17:00 +28°C° 0 mm 1 m/s 668 mmHg 17%
    18:00 +25°C° 0 mm 1 m/s 667 mmHg 21%
    19:00 +22°C° 0 mm 1 m/s 667 mmHg 25%
    20:00 +20°C° 0 mm 2 m/s 667 mmHg 27%
    21:00 +19°C° 0 mm 2 m/s 667 mmHg 28%
    22:00 +17°C° 0 mm 2 m/s 668 mmHg 30%
    23:00 +17°C° 0 mm 2 m/s 667 mmHg 32%

    Mâine, 28 Iunie, Vineri

    Timp Temperatura Precipitaţii Vânt Presiune Umiditate
    00:00 +16°C° 0 mm 1 m/s 667 mmHg 34%
    01:00 +15°C° 0 mm 1 m/s 667 mmHg 37%
    02:00 +14°C° 0 mm 1 m/s 667 mmHg 39%
    03:00 +13°C° 0 mm 1 m/s 667 mmHg 42%
    04:00 +11°C° 0 mm 0 m/s 667 mmHg 44%
    05:00 +12°C° 0 mm 1 m/s 667 mmHg 45%
    06:00 +12°C° 0 mm 1 m/s 668 mmHg 46%
    07:00 +12°C° 0 mm 1 m/s 668 mmHg 46%
    08:00 +16°C° 0 mm 2 m/s 669 mmHg 39%
    09:00 +20°C° 0 mm 2 m/s 670 mmHg 31%
    10:00 +25°C° 0 mm 3 m/s 671 mmHg 23%
    11:00 +27°C° 0 mm 3 m/s 670 mmHg 21%
    12:00 +29°C° 0 mm 3 m/s 670 mmHg 18%
    13:00 +31°C° 0 mm 3 m/s 670 mmHg 16%
    14:00 +31°C° 0 mm 2 m/s 669 mmHg 15%
    15:00 +31°C° 0 mm 2 m/s 669 mmHg 15%
    16:00 +31°C° 0 mm 1 m/s 668 mmHg 14%
    17:00 +28°C° 0 mm 1 m/s 668 mmHg 18%
    18:00 +25°C° 0 mm 1 m/s 667 mmHg 21%
    19:00 +22°C° 0 mm 1 m/s 667 mmHg 25%
    20:00 +21°C° 0 mm 1 m/s 667 mmHg 27%
    21:00 +19°C° 0 mm 1 m/s 667 mmHg 30%
    22:00 +18°C° 0 mm 1 m/s 667 mmHg 32%
    23:00 +18°C° 0 mm 1 m/s 667 mmHg 34%

    Poimâine, 29 Iunie, Sâmbătă

    Timp Temperatura Precipitaţii Vânt Presiune Umiditate
    00:00 +16°C° 0 mm 1 m/s 667 mmHg 36%
    01:00 +15°C° 0 mm 1 m/s 668 mmHg 37%
    02:00 +14°C° 0 mm 1 m/s 667 mmHg 39%
    03:00 +14°C° 0 mm 1 m/s 667 mmHg 41%
    04:00 +13°C° 0 mm 1 m/s 667 mmHg 43%
    05:00 +13°C° 0 mm 1 m/s 668 mmHg 43%
    06:00 +12°C° 0 mm 1 m/s 668 mmHg 44%
    07:00 +12°C° 0 mm 1 m/s 669 mmHg 45%
    08:00 +16°C° 0 mm 2 m/s 670 mmHg 37%
    09:00 +20°C° 0 mm 3 m/s 671 mmHg 30%
    10:00 +25°C° 0 mm 3 m/s 672 mmHg 22%
    11:00 +27°C° 0 mm 3 m/s 671 mmHg 20%
    12:00 +29°C° 0 mm 3 m/s 671 mmHg 17%
    13:00 +31°C° 0 mm 3 m/s 670 mmHg 15%
    14:00 +31°C° 0 mm 2 m/s 670 mmHg 14%
    15:00 +31°C° 0 mm 2 m/s 669 mmHg 14%
    16:00 +31°C° 0 mm 1 m/s 669 mmHg 13%
    17:00 +28°C° 0 mm 1 m/s 668 mmHg 17%
    18:00 +25°C° 0 mm 1 m/s 668 mmHg 20%
    19:00 +22°C° 0 mm 1 m/s 668 mmHg 24%
    20:00 +20°C° 0 mm 2 m/s 668 mmHg 25%
    21:00 +19°C° 0 mm 2 m/s 668 mmHg 27%
    22:00 +18°C° 0 mm 3 m/s 669 mmHg 28%
    23:00 +17°C° 0 mm 3 m/s 668 mmHg 29%

    30 Iunie, Duminică

    Timp Temperatura Precipitaţii Vânt Presiune Umiditate
    00:00 +17°C° 0 mm 2 m/s 668 mmHg 29%
    01:00 +16°C° 0 mm 2 m/s 668 mmHg 30%
    02:00 +15°C° 0 mm 2 m/s 668 mmHg 32%
    03:00 +14°C° 0 mm 2 m/s 668 mmHg 34%
    04:00 +13°C° 0 mm 1 m/s 668 mmHg 36%
    05:00 +13°C° 0 mm 1 m/s 668 mmHg 37%
    06:00 +12°C° 0 mm 1 m/s 669 mmHg 38%
    07:00 +12°C° 0 mm 1 m/s 669 mmHg 39%
    08:00 +16°C° 0 mm 2 m/s 670 mmHg 33%
    09:00 +20°C° 0 mm 2 m/s 671 mmHg 26%
    10:00 +25°C° 0 mm 3 m/s 672 mmHg 20%
    11:00 +27°C° 0 mm 2 m/s 672 mmHg 17%
    12:00 +29°C° 0 mm 2 m/s 671 mmHg 15%
    13:00 +32°C° 0 mm 1 m/s 671 mmHg 13%
    14:00 +31°C° 0 mm 1 m/s 671 mmHg 13%
    15:00 +31°C° 0 mm 2 m/s 670 mmHg 13%
    16:00 +31°C° 0 mm 2 m/s 670 mmHg 13%
    17:00 +28°C° 0 mm 2 m/s 669 mmHg 17%
    18:00 +25°C° 0 mm 2 m/s 669 mmHg 20%
    19:00 +21°C° 0 mm 2 m/s 669 mmHg 24%
    20:00 +20°C° 0 mm 2 m/s 669 mmHg 25%
    21:00 +19°C° 0 mm 2 m/s 669 mmHg 26%
    22:00 +18°C° 0 mm 2 m/s 669 mmHg 27%
    23:00 +18°C° 0 mm 2 m/s 669 mmHg 28%

    1 Iulie, Luni

    Timp Temperatura Precipitaţii Vânt Presiune Umiditate
    00:00 +17°C° 0 mm 2 m/s 669 mmHg 29%
    01:00 +17°C° 0 mm 2 m/s 669 mmHg 30%
    02:00 +14°C° 0 mm 3 m/s 669 mmHg 35%
    03:00 +13°C° 0 mm 3 m/s 668 mmHg 40%
    04:00 +12°C° 0 mm 3 m/s 668 mmHg 45%
    05:00 +11°C° 0 mm 3 m/s 668 mmHg 47%
    06:00 +11°C° 0 mm 3 m/s 669 mmHg 49%
    07:00 +10°C° 0 mm 2 m/s 669 mmHg 50%
    08:00 +15°C° 0 mm 2 m/s 670 mmHg 40%
    09:00 +20°C° 0 mm 2 m/s 671 mmHg 30%
    10:00 +25°C° 0 mm 3 m/s 671 mmHg 20%
    11:00 +27°C° 0 mm 3 m/s 671 mmHg 17%
    12:00 +29°C° 0 mm 3 m/s 671 mmHg 14%
    13:00 +31°C° 0 mm 3 m/s 671 mmHg 11%
    14:00 +31°C° 0 mm 3 m/s 670 mmHg 10%
    15:00 +31°C° 0 mm 3 m/s 670 mmHg 10%
    16:00 +31°C° 0 mm 3 m/s 669 mmHg 9%
    17:00 +27°C° 0 mm 3 m/s 669 mmHg 12%
    18:00 +24°C° 0 mm 3 m/s 668 mmHg 15%
    19:00 +19°C° 0 mm 3 m/s 668 mmHg 18%
    20:00 +18°C° 0 mm 2 m/s 668 mmHg 19%
    21:00 +17°C° 0 mm 2 m/s 668 mmHg 20%
    22:00 +16°C° 0 mm 2 m/s 668 mmHg 20%
    23:00 +16°C° 0 mm 2 m/s 668 mmHg 22%

    2 Iulie, Marţi

    Timp Temperatura Precipitaţii Vânt Presiune Umiditate
    00:00 +15°C° 0 mm 2 m/s 668 mmHg 23%
    01:00 +14°C° 0 mm 2 m/s 668 mmHg 24%
    02:00 +12°C° 0 mm 3 m/s 668 mmHg 28%
    03:00 +11°C° 0 mm 3 m/s 668 mmHg 31%
    04:00 +10°C° 0 mm 3 m/s 668 mmHg 35%
    05:00 +10°C° 0 mm 3 m/s 668 mmHg 38%
    06:00 +9°C° 0 mm 3 m/s 669 mmHg 42%
    07:00 +8°C° 0 mm 3 m/s 669 mmHg 45%
    08:00 +12°C° 0 mm 4 m/s 670 mmHg 38%
    09:00 +17°C° 0 mm 4 m/s 671 mmHg 31%
    10:00 +21°C° 0 mm 5 m/s 672 mmHg 23%
    11:00 +25°C° 0 mm 5 m/s 671 mmHg 20%
    12:00 +27°C° 0 mm 4 m/s 671 mmHg 16%
    13:00 +30°C° 0 mm 4 m/s 671 mmHg 12%
    14:00 +30°C° 0 mm 4 m/s 670 mmHg 11%
    15:00 +30°C° 0 mm 4 m/s 669 mmHg 11%
    16:00 +30°C° 0 mm 4 m/s 669 mmHg 10%
    17:00 +26°C° 0 mm 3 m/s 668 mmHg 13%
    18:00 +22°C° 0 mm 3 m/s 668 mmHg 16%
    19:00 +19°C° 0 mm 2 m/s 668 mmHg 19%
    20:00 +17°C° 0 mm 2 m/s 668 mmHg 20%
    21:00 +16°C° 0 mm 3 m/s 668 mmHg 22%
    22:00 +14°C° 0 mm 3 m/s 669 mmHg 23%
    23:00 +13°C° 0 mm 3 m/s 669 mmHg 24%
    Arată mai mult